Location: Degersen
(52.2871°N, 9.5716°E)
Time: 23:20:09
(UTC+00:00)

Cosmos 2344 - Pass Details

Date: 20 January 2026
Orbit: 1196 x 3047 km, 63.3° (Epoch: 7 February)

Event Time Altitude Azimuth Distance (km) Brightness Sun altitude
Exits shadow 03:09:45 37° 4° (N) 1,832 4.4 -37.4°
Drops below altitude 10° 03:16:34 10° 61° (ENE) 3,484 6.6 -36.4°
Sets 03:20:04 0° 70° (ENE) 4,660 7.5 -35.9°
